Flag for Portugal Weather past 2 weeks in Faro, Portugal

Now
59 °F

Passing clouds.


Feels Like: 58 °F
Forecast: 59 / 66 °F
Wind: 7 mph from Northwest

Location: Faro / Aeroporto


UV Index: 0 (Low)

Visibility: N/A


Pressure: 29.86 "Hg

Humidity: 82%

Dew point: 54 °F

Location of FaroLocation

Historic Weather in Faro

°F

Faro temperature yesterday

Maximum temperature yesterday: 70 °F (at 11:00 AM)
Minimum temperature yesterday: 57 °F (at 6:30 AM)
Average temperature yesterday: 64 °F

Past Weeks' High & Low Weather Summary

 TemperatureHumidityPressure
High81 °F (Apr 8, 4:00 PM)100% (Apr 4, 6:00 AM)30.24 "Hg (Apr 4, 6:00 AM)
Low46 °F (Apr 4, 6:00 AM)31% (Apr 17, 2:00 PM)29.86 "Hg (Apr 11, 2:30 AM)
Average64 °F78%30.02 "Hg
* Reported Apr 4 5:00 AM — Apr 19 5:30 AM, Faro, Weather by CustomWeather, © 2014

Note: Actual official high and low records may vary slightly from our data, if they occured in-between our weather recording intervals... More about our weather records

Advertising

Historic Weather Conditions — Data for Previous 24 hours

 ConditionsComfort  
Time TempWeatherWind HumidityBarometerVisibility
5:30 AM
Apr 19
59 °FPassing clouds.1 mph88%29.86 "HgN/A
5:00 AM59 °FPassing clouds.2 mph88%29.86 "HgN/A
4:30 AM59 °FPassing clouds.2 mph88%29.86 "HgN/A
4:00 AM59 °FPassing clouds.5 mph88%29.89 "HgN/A
3:30 AM59 °FPassing clouds.3 mph88%29.89 "HgN/A
3:00 AM59 °FPassing clouds.7 mph88%29.89 "HgN/A
2:30 AM59 °FPassing clouds.3 mph88%29.92 "HgN/A
2:00 AM61 °FPassing clouds.3 mph83%29.92 "HgN/A
1:30 AM61 °FPassing clouds.6 mph88%29.92 "HgN/A
1:00 AM61 °FPassing clouds.6 mph88%29.92 "HgN/A
12:30 AM61 °FClear.8 mph88%29.92 "Hg10 mi
12:00 AM61 °FClear.6 mph88%29.92 "Hg10 mi
11:30 PM
Apr 18
63 °FPassing clouds.5 mph83%29.95 "HgN/A
11:00 PM61 °FPassing clouds.6 mph88%29.95 "HgN/A
10:30 PM63 °FPassing clouds.6 mph88%29.95 "HgN/A
10:00 PM63 °FPassing clouds.1 mph94%29.95 "HgN/A
9:30 PM63 °FPassing clouds.3 mph94%29.95 "HgN/A
9:00 PM64 °FSunny.5 mph88%29.92 "Hg10 mi
8:30 PM64 °FSunny.5 mph88%29.92 "Hg10 mi
8:00 PM64 °FSunny.6 mph88%29.92 "Hg10 mi
7:30 PM66 °FSunny.6 mph83%29.92 "Hg10 mi
7:00 PM66 °FPassing clouds.6 mph83%29.92 "HgN/A
6:30 PM66 °FPassing clouds.6 mph78%29.92 "HgN/A
6:00 PM68 °FScattered clouds.7 mph69%29.92 "HgN/A
5:30 PM68 °FScattered clouds.9 mph69%29.95 "HgN/A
5:00 PM68 °FPartly sunny.9 mph69%29.95 "HgN/A
4:30 PM68 °FBroken clouds.9 mph73%29.95 "HgN/A
4:00 PM68 °FBroken clouds.8 mph73%29.95 "HgN/A
3:30 PM66 °FBroken clouds.8 mph78%29.95 "HgN/A
3:00 PM68 °FBroken clouds.7 mph78%29.98 "HgN/A
2:00 PM68 °FPartly sunny.6 mph78%29.98 "HgN/A
1:30 PM66 °FPartly sunny.7 mph83%30.01 "HgN/A
1:00 PM66 °FPartly sunny.7 mph83%29.98 "HgN/A
12:30 PM66 °FPartly sunny.10 mph83%30.01 "HgN/A
12:00 PM66 °FPartly sunny.8 mph83%30.01 "HgN/A
11:30 AM68 °FPartly sunny.7 mph78%30.01 "HgN/A
11:00 AM70 °FPartly sunny.8 mph73%30.01 "HgN/A
10:30 AM66 °FPartly sunny.7 mph83%30.01 "HgN/A
10:00 AM66 °FScattered clouds.6 mph83%30.01 "HgN/A
9:30 AM66 °FScattered clouds.6 mph78%30.01 "HgN/A
9:00 AM64 °FScattered clouds.6 mph88%30.01 "Hg6 mi
8:30 AM61 °FScattered clouds.6 mph88%29.98 "HgN/A
8:00 AM61 °FPassing clouds.7 mph83%29.98 "HgN/A
7:30 AM61 °FPassing clouds.6 mph83%29.98 "HgN/A
7:00 AM59 °FClear.5 mph88%29.98 "Hg10 mi
6:30 AM57 °FClear.5 mph88%29.98 "Hg10 mi
6:00 AM61 °FClear.5 mph88%29.95 "Hg10 mi
Weather by CustomWeather, © 2014

See weather overview